Location: Newark
(16.3678°N, 77.8722°E)
Time: 04:56:21
(UTC+00:00)

Courier 1B Rocket - Visible Passes

Search period start: 09 December 2019 00:00
Search period end: 19 December 2019 00:00
Orbit: 920 x 1202 km, 28.2° (Epoch: 07 December)

Date Brightness Start Highest point End Pass type
(mag) Time Alt. Az. Time Alt. Az. Time Alt. Az.
09 Dec 5.1 00:05:26 10° WSW 00:12:35 80° NNW 00:19:15 10° ENE visible
09 Dec 7.7 21:22:17 14° ESE 21:22:17 14° ESE 21:23:25 10° E visible
09 Dec 5.2 23:08:43 41° SW 23:11:26 75° SSE 23:18:16 10° ENE visible
10 Dec 6.2 22:12:17 41° ESE 22:12:17 41° ESE 22:17:05 10° ENE visible
10 Dec 5.3 23:58:42 19° W 00:03:58 58° NNW 00:10:36 10° ENE visible
11 Dec 5.0 23:02:06 73° WNW 23:02:43 79° NNW 23:09:41 10° ENE visible
12 Dec 6.7 22:05:23 30° ENE 22:05:23 30° ENE 22:08:39 10° ENE visible
12 Dec 5.6 23:51:47 26° WNW 23:55:25 45° NNW 00:01:56 10° NE visible
13 Dec 5.5 22:54:56 55° N 22:54:56 55° N 23:01:00 10° ENE visible
14 Dec 6.1 00:42:06 10° WNW 00:48:24 32° N 00:54:20 10° NE visible
14 Dec 7.1 21:58:00 21° ENE 21:58:00 21° ENE 22:00:01 10° ENE visible
14 Dec 5.9 23:44:23 29° NW 23:46:55 37° NNW 23:53:18 10° NE visible
15 Dec 6.1 22:47:22 38° NNE 22:47:22 38° NNE 22:52:18 10° NE visible
16 Dec 6.2 00:33:47 10° WNW 00:40:04 30° N 00:45:58 10° ENE visible
16 Dec 7.5 21:50:17 15° NE 21:50:17 15° NE 21:51:18 10° ENE visible
16 Dec 6.1 23:36:39 29° NW 23:38:31 33° N 23:44:47 10° NE visible
17 Dec 6.5 22:39:30 30° NNE 22:39:30 30° NNE 22:43:40 10° NE visible
18 Dec 6.2 00:25:53 12° NW 00:31:44 31° N 00:37:47 10° ENE visible
18 Dec 7.7 21:42:19 11° NE 21:42:19 11° NE 21:42:34 10° NE visible
18 Dec 6.2 23:28:42 30° NNW 23:30:10 32° N 23:36:25 10° ENE visible
